Dalhart, TX

11:00 PM CDT on June 25, 2017 (GMT -0500)
Dalhart Municipal

Weather History for KDHT - September, 2013

Change the Weather History Date:

Sunday, September 22, 2013

  Actual Average Record
Temperature  
Mean Temperature 69 °F 65 °F  
Max Temperature 83 °F 80 °F 93 °F (2000)
Min Temperature 54 °F 50 °F 37 °F (1995)
Degree Days  
Heating Degree Days 0 3  
Month to date heating degree days 0 28  
Since 1 July heating degree days 0 31  
Cooling Degree Days 4 3  
Month to date cooling degree days 189 116  
Year to date cooling degree days 1542 1112  
Growing Degree Days 18 (Base 50)    
Moisture  
Dew Point 50 °F    
Average Humidity 59    
Maximum Humidity 93    
Minimum Humidity 24    
Precipitation  
Precipitation 0.00 in 0.05 in 0.45 in (2004)
Month to date precipitation 1.64 1.25  
Year to date precipitation 6.66 14.60  
Snow  
Snow 0.00 in 0.00 in 0.00 in ()
Month to date snowfall 0.0 0.0  
Since 1 July snowfall 0.0 0.0  
Since 1 September snowfall 0.0 0.0  
Snow Depth 0.00 in    
Sea Level Pressure  
Sea Level Pressure 29.71 in    
Wind  
Wind Speed 17 mph (South)    
Max Wind Speed 29 mph    
Max Gust Speed 36 mph    
Visibility 10 miles    
Events      
T = Trace of Precipitation, MM = Missing Value Source: NWS Daily Summary

Daily Weather History Graph

Daily Weather History Graph

Search for Another Location

Airport or City:

Trip Planner

Search our weather history database for the weather conditions in past years. The results will help you decide how hot, cold, wet, or windy it might be!

Date:

Astronomy

Sep. 22, 2013 Rise Set
Actual Time 7:38 AM CDT 7:46 PM CDT
Civil Twilight 7:12 AM CDT 8:12 PM CDT
Nautical Twilight 6:42 AM CDT 8:42 PM CDT
Astronomical Twilight 6:12 AM CDT 9:12 PM CDT
Moon 9:46 PM CDT (9/22) 10:53 AM CDT (9/22)
Length of Visible Light 12h 59m
Length of Day
12h 08m
Waning Gibbous, 88% of the Moon is Illuminated
Sep 22
Waning Gibbous
Sep 26
Last Quarter
Oct 4
New
Oct 11
First Quarter
Oct 18
Full

Hourly Weather History & Observations

Time (CDT) Temp. Dew Point Humidity Pressure Visibility Wind Dir Wind Speed Gust Speed Precip Events Conditions
12:53 AM 62.1 °F 57.0 °F 84% 29.82 in 10.0 mi South 10.4 mph - N/A   Clear
1:53 AM 61.0 °F 55.9 °F 83% 29.80 in 10.0 mi SSW 8.1 mph - N/A   Clear
2:53 AM 59.0 °F 55.9 °F 90% 29.80 in 10.0 mi SSW 9.2 mph - N/A   Clear
3:53 AM 57.9 °F 55.0 °F 90% 29.78 in 10.0 mi SSW 8.1 mph - N/A   Clear
4:53 AM 57.0 °F 54.0 °F 89% 29.77 in 10.0 mi South 9.2 mph - N/A   Clear
5:53 AM 57.0 °F 54.0 °F 89% 29.77 in 10.0 mi South 10.4 mph - N/A   Clear
6:53 AM 55.0 °F 53.1 °F 93% 29.78 in 7.0 mi South 8.1 mph - N/A   Clear
7:53 AM 55.0 °F 52.0 °F 89% 29.80 in 7.0 mi South 10.4 mph - N/A   Clear
8:53 AM 59.0 °F 55.0 °F 87% 29.80 in 10.0 mi South 11.5 mph - N/A   Clear
9:53 AM 66.0 °F 57.0 °F 73% 29.79 in 10.0 mi SSW 16.1 mph - N/A   Clear
10:53 AM 71.1 °F 57.0 °F 61% 29.78 in 10.0 mi South 18.4 mph - N/A   Clear
11:53 AM 75.9 °F 57.0 °F 52% 29.75 in 10.0 mi SSW 17.3 mph - N/A   Clear
12:53 PM 79.0 °F 54.0 °F 42% 29.73 in 10.0 mi SSW 17.3 mph 26.5 mph N/A   Clear
1:53 PM 81.0 °F 48.9 °F 33% 29.71 in 10.0 mi SSW 21.9 mph 29.9 mph N/A   Clear
2:53 PM 82.0 °F 45.0 °F 27% 29.68 in 10.0 mi South 19.6 mph 31.1 mph N/A   Clear
3:53 PM 82.9 °F 42.1 °F 24% 29.65 in 10.0 mi South 23.0 mph 29.9 mph N/A   Clear
4:53 PM 82.9 °F 42.1 °F 24% 29.63 in 10.0 mi SSW 24.2 mph 28.8 mph N/A   Clear
5:53 PM 82.0 °F 45.0 °F 27% 29.62 in 10.0 mi South 23.0 mph 31.1 mph N/A   Clear
6:53 PM 80.1 °F 43.0 °F 27% 29.61 in 10.0 mi South 19.6 mph 28.8 mph N/A   Clear
7:53 PM 75.9 °F 44.1 °F 32% 29.61 in 10.0 mi South 16.1 mph 24.2 mph N/A   Clear
8:53 PM 73.0 °F 43.0 °F 34% 29.63 in 10.0 mi South 18.4 mph 29.9 mph N/A   Clear
9:53 PM 71.1 °F 41.0 °F 34% 29.62 in 10.0 mi South 20.7 mph - N/A   Clear
10:53 PM 69.1 °F 41.0 °F 36% 29.60 in 10.0 mi South 27.6 mph 35.7 mph N/A   Clear
11:53 PM 66.9 °F 41.0 °F 39% 29.58 in 10.0 mi South 23.0 mph 32.2 mph N/A   Clear